Hourly Weather Roundup
Issued by NWS Central Illinois

Home | Current Version | Previous Version | Text Only | Print | Product List | Glossary On
Versions: 1 2 3 4 5 6 7 8 9 10 11 12 13 14 15 16 17 18 19 20 21 22 23 24 25 26 27 28 29 30 31 32 33 34 35 36 37 38 39 40 41 42 43 44 45 46 47 48 49 50
000
NZUS43 KILX 231010
HWRILX

AREA WEATHER ROUNDUP
NATIONAL WEATHER SERVICE, LINCOLN IL
500 AM CDT SAT JUL 23 2016


CITY           SKY/WX    TMP DP  RH WIND       PRES   REMARKS
BLOOMINGTON    CLEAR     73  71  93 S3        30.01S
CHAMPAIGN      CLEAR     73  71  93 CALM      30.01S
DANVILLE       PTCLDY    71  71 100 CALM      29.98S FOG
DECATUR        CLEAR     73  70  90 S3        30.00R
EFFINGHAM      PTCLDY    71  71 100 CALM      30.01S
FLORA          FOG       72  71  98 CALM      30.00S VSB 1/2
GALESBURG      MOCLDY    73  73  98 E3        29.99S FOG
JACKSONVILLE   CLEAR     73  71  95 E3        29.98S
LACON          CLEAR     74  73  96 CALM      29.98S
LAWRENCEVILLE  FOG       73  73 100 CALM      30.00S VSB 3/4
LITCHFIELD     CLEAR     70  69  95 CALM      29.99F
$$


CITY           SKY/WX    TMP DP  RH WIND       PRES   REMARKS
LINCOLN        CLEAR     73  73 100 CALM      29.99S
MACOMB           N/A     72  72  99 CALM      30.00S FOG
MATTOON        CLEAR     72  70  93 CALM      29.99S
MT CARMEL AP   FOG       71  70  97 CALM      30.00S VSB 1/2
OLNEY-NOBLE AP MOCLDY    70  70 100 CALM      30.00S FOG
PARIS          CLEAR     68  68 100 CALM      30.02R
PEORIA         CLEAR     76  75  97 CALM      29.98F
PONTIAC        CLEAR     73  73 100 CALM      30.00S FOG
RANTOUL        NOT AVBL
ROBINSON       FOG       69  69 100 CALM      30.01S VSB 1/2
SPRINGFIELD    CLEAR     74  72  93 CALM      29.99S
TAYLORVILLE    CLEAR     71  71 100 CALM      29.99S FOG
$$

...REGIONAL REPORTS...


CITY           SKY/WX    TMP DP  RH WIND       PRES   REMARKS
CHICAGO O`HARE MOCLDY    78  75  90 W3        29.97F HX  81
KANKAKEE       NOT AVBL
MOLINE         CLEAR     75  72  90 CALM      29.97F
MOUNT STERLING CLEAR     72  72  99 SE3       29.98S
MOUNT VERNON   PTCLDY    70  66  88 CALM      30.00S
PITTSFIELD     CLEAR     74  73  99 CALM      29.99F
QUINCY         CLEAR     74  73  97 S3        29.97F
ROCKFORD       PTCLDY    76  73  91 CALM      30.00R
$$


CITY           SKY/WX    TMP DP  RH WIND       PRES   REMARKS
BURLINGTON     CLEAR     74  74 100 S3        29.96F FOG
CEDAR RAPIDS   CLEAR     76  76 100 E5        29.96S
DES MOINES     CLOUDY    80  76  87 S8        29.91R HX  86
KIRKSVILLE     CLEAR     74  72  93 S5        29.97F
OTTUMWA        CLOUDY    77  74  90 S6        29.94F
ST LOUIS       MOCLDY    78  72  81 S3        29.99S HX  80
$$


CITY           SKY/WX    TMP DP  RH WIND       PRES   REMARKS
TERRE HAUTE    FOG       70  68  93 CALM      30.00S VSB 1/2
EVANSVILLE     CLOUDY    73  72  96 CALM      30.00S FOG
INDIANAPOLIS   PTCLDY    73  70  90 W5        30.01F
LAFAYETTE      FOG       71  71 100 CALM      30.00S VSB 1/4
MADISON        FOG       73  72  96 CALM      29.98S VSB 3/4
MILWAUKEE      PTCLDY    75  71  87 CALM      29.97S
$$






USA.gov is the U.S. government's official web portal to all federal, state and local government web resources and services.